Retour au catalogue

ICEYE-X5

ActifSciencePO
NORAD 44389·PAYLOAD·🇫🇮 Finland

Lancé Jul 5, 2019 depuis Vostochny Cosmodrome

Loading…

Prochains Passages (prochaines 24 heures)

TLE

FraisSource: Space-Track

Époque: Sep 14, 2026, 22:03 UTC

1 44389U 19038C   26257.91913390  .00071184  00000-0  75864-3 0  9990
2 44389  97.8585 322.1481 0003766 260.0477 100.0356 15.63742397396944

Suivez ICEYE-X5 en temps réel avec AllMySat

Download on the App Store